Content
SEND FEEDBACK

Daily
Averages
Monthly
Summary
United States of America

BUFFALO, OKLAHOMA


Home > North America > United States > Oklahoma
Elevation: 1810 feet     Latitude: 36 50N     Longitude: 099 37W

WEATHER
 
SELECT A DAY
Number of Records: 43,535;   Date Range: 9/1/12 - 7/22/14
 
SHARE

PRINT THIS DATA

[ ← Previous Day ]
WEATHER ALMANAC - FEBRUARY 13, 2013
[ Next Day → ]
[ °C ]   °F
Weather ElementAverageHighLow
Temperature30.6 °F44.6 °F (3:55 pm)17.6 °F (7:15 am)
Dewpoint24.6 °F32 °F (2:55 pm)14 °F (6:55 am)
Humidity79.4 %93 % (12:35 am)57 % (5:35 pm)
Barometer30.02 in30.07 in (12:35 am)29.96 in (5:35 pm)
Wind Speed9.5 mph12.7 mph (8:55 pm)
Weather ElementAverage
Visibility10 mi
Wind DirectionSW (226.2 °)

Weather ElementTotal
Precipitation---
Heating Degree Days33.9 (Base 65)
Averaged from 71 records on February 13, 2013
WEATHER CONDITIONS BREAKOUT
WIND DIRECTION BREAKOUT
WEATHER BY HOUR - FEBRUARY 13, 2013
[ °C ]   °F
Local TimeTemperatureDewpointHumidityBarometerVisibilityWind DirectionWind SpeedGust SpeedPrecipitationEventsConditions
12:35 AM23.0 °F21.2 °F93 %30.07 in10.0 miSW (230°)8.1 mphClear
12:55 AM23.0 °F21.2 °F93 %30.07 in10.0 miSW (230°)8.1 mphClear
1:15 AM23.0 °F21.2 °F93 %30.07 in10.0 miSW (220°)8.1 mphClear
1:35 AM23.0 °F21.2 °F93 %30.05 in10.0 miSW (220°)8.1 mphClear
1:55 AM24.8 °F23.0 °F93 %30.05 in10.0 miSW (220°)9.2 mphClear
2:15 AM24.8 °F23.0 °F93 %30.05 in10.0 miSSW (210°)10.4 mphClear
2:35 AM24.8 °F23.0 °F93 %30.04 in10.0 miSW (220°)10.4 mphClear
2:55 AM24.8 °F23.0 °F93 %30.04 in10.0 miSW (220°)10.4 mphClear
3:15 AM23.0 °F21.2 °F93 %30.04 in10.0 miSW (230°)9.2 mphClear
3:35 AM23.0 °F21.2 °F93 %30.03 in10.0 miSW (220°)9.2 mphClear
3:55 AM23.0 °F21.2 °F93 %30.02 in10.0 miSW (220°)10.4 mphClear
4:15 AM23.0 °F19.4 °F86 %30.02 in10.0 miSW (230°)11.5 mphClear
4:35 AM21.2 °F19.4 °F93 %30.02 in10.0 miSW (220°)10.4 mphClear
4:55 AM21.2 °F19.4 °F93 %30.02 in10.0 miSW (220°)10.4 mphClear
5:15 AM21.2 °F17.6 °F86 %30.02 in10.0 miSW (220°)10.4 mphClear
5:35 AM19.4 °F17.6 °F93 %30.03 in10.0 miSW (230°)10.4 mphClear
5:55 AM19.4 °F15.8 °F86 %30.03 in10.0 miSW (220°)10.4 mphClear
6:15 AM19.4 °F15.8 °F86 %30.04 in10.0 miSW (220°)9.2 mphClear
6:35 AM19.4 °F15.8 °F86 %30.04 in10.0 miSW (220°)9.2 mphClear
6:55 AM19.4 °F14.0 °F80 %30.05 in10.0 miSW (230°)9.2 mphClear
7:15 AM17.6 °F14.0 °F86 %30.05 in10.0 miSW (230°)9.2 mphClear
7:35 AM17.6 °F14.0 °F86 %30.05 in10.0 miSW (220°)8.1 mphClear
7:55 AM17.6 °F14.0 °F86 %30.05 in10.0 miSSW (210°)8.1 mphClear
8:15 AM19.4 °F17.6 °F93 %30.05 in10.0 miSW (220°)10.4 mphClear
8:35 AM21.2 °F17.6 °F86 %30.06 in10.0 miSW (220°)10.4 mphClear
8:55 AM23.0 °F19.4 °F86 %30.07 in10.0 miSW (220°)10.4 mphClear
9:15 AM23.0 °F19.4 °F86 %30.07 in10.0 miSW (230°)10.4 mphClear
9:35 AM26.6 °F21.2 °F80 %30.07 in10.0 miSW (220°)9.2 mphClear
9:55 AM28.4 °F23.0 °F80 %30.07 in10.0 miSW (230°)9.2 mphClear
10:15 AM28.4 °F23.0 °F80 %30.07 in10.0 miSW (230°)8.1 mphClear
10:35 AM30.2 °F24.8 °F80 %30.07 in10.0 miWSW (240°)9.2 mphClear
10:55 AM32.0 °F26.6 °F80 %30.07 in10.0 miWSW (240°)10.4 mphClear
11:15 AM33.8 °F26.6 °F75 %30.07 in10.0 miWSW (250°)9.2 mphClear
11:35 AM35.6 °F26.6 °F70 %30.07 in10.0 miWSW (240°)6.9 mphClear
11:55 AM35.6 °F26.6 °F70 %30.07 in10.0 miWSW (240°)6.9 mphClear
12:15 PM37.4 °F26.6 °F65 %30.06 in10.0 miSW (230°)8.1 mphClear
12:35 PM37.4 °F28.4 °F70 %30.05 in10.0 miSW (230°)10.4 mphClear
12:55 PM37.4 °F30.2 °F75 %30.03 in10.0 miSW (220°)10.4 mphClear
1:15 PM37.4 °F30.2 °F75 %30.02 in10.0 miSW (220°)10.4 mphClear
1:35 PM37.4 °F30.2 °F75 %30.02 in10.0 miSW (220°)10.4 mphClear
1:55 PM39.2 °F30.2 °F70 %30.01 in10.0 miSW (220°)9.2 mphClear
2:15 PM41.0 °F30.2 °F65 %30.01 in10.0 miSW (230°)9.2 mphClear
2:35 PM41.0 °F30.2 °F65 %30.00 in10.0 miSSW (210°)8.1 mphClear
2:55 PM42.8 °F32.0 °F66 %30.00 in10.0 miSW (220°)8.1 mphClear
3:15 PM42.8 °F32.0 °F66 %29.99 in10.0 miWSW (240°)6.9 mphClear
3:35 PM42.8 °F32.0 °F66 %29.98 in10.0 miSW (230°)8.1 mphClear
3:55 PM44.6 °F32.0 °F61 %29.99 in10.0 miSW (230°)9.2 mphClear
4:15 PM44.6 °F32.0 °F61 %29.98 in10.0 miSW (220°)10.4 mphClear
4:35 PM44.6 °F32.0 °F61 %29.98 in10.0 miSW (230°)10.4 mphClear
4:55 PM42.8 °F30.2 °F61 %29.98 in10.0 miSW (230°)8.1 mphClear
5:15 PM42.8 °F30.2 °F61 %29.97 in10.0 miSW (230°)10.4 mphClear
5:35 PM42.8 °F28.4 °F57 %29.96 in10.0 miSW (230°)6.9 mphClear
5:55 PM41.0 °F28.4 °F61 %29.96 in10.0 miWSW (240°)6.9 mphClear
6:15 PM37.4 °F26.6 °F65 %29.97 in10.0 miWest (260°)8.1 mphClear
6:35 PM35.6 °F28.4 °F75 %29.98 in10.0 miWest (260°)6.9 mphClear
6:55 PM35.6 °F26.6 °F70 %29.97 in10.0 miWSW (240°)9.2 mphClear
7:15 PM33.8 °F26.6 °F75 %29.97 in10.0 miWSW (250°)6.9 mphClear
7:35 PM33.8 °F28.4 °F81 %29.98 in10.0 miSW (230°)8.1 mphClear
7:55 PM33.8 °F28.4 °F81 %29.98 in10.0 miSW (230°)10.4 mphClear
8:15 PM33.8 °F28.4 °F81 %29.99 in10.0 miSW (220°)10.4 mphClear
8:35 PM33.8 °F28.4 °F81 %29.99 in10.0 miSW (220°)10.4 mphClear
8:55 PM32.0 °F28.4 °F87 %29.99 in10.0 miSW (220°)12.7 mphClear
9:15 PM32.0 °F28.4 °F87 %30.00 in10.0 miSW (220°)11.5 mphClear
9:35 PM32.0 °F26.6 °F80 %30.00 in10.0 miSW (220°)11.5 mphClear
9:55 PM33.8 °F26.6 °F75 %30.00 in10.0 miSW (220°)12.7 mphClear
10:15 PM32.0 °F26.6 °F80 %30.01 in10.0 miSW (220°)10.4 mphClear
10:35 PM32.0 °F26.6 °F80 %30.00 in10.0 miSSW (210°)12.7 mphClear
10:55 PM32.0 °F26.6 °F80 %30.00 in10.0 miSW (220°)11.5 mphClear
11:15 PM32.0 °F26.6 °F80 %30.01 in10.0 miSW (220°)11.5 mphClear
11:35 PM32.0 °F26.6 °F80 %30.02 in10.0 miSW (220°)10.4 mphClear
11:55 PM32.0 °F26.6 °F80 %30.02 in10.0 miSSW (210°)11.5 mphClear
Hourly data recorded from KWWR, located miles away from Buffalo, Oklahoma







STORIES FROM OUR PARTNERS